Weather in Ponomarev

Russia / Rostov Oblast     49°03′25″N   41°28′39″E
temp.,
°C
wind,
m/s
gust,
m/s
humid.,
%
clouds,
%
prec.,
mm/h
press.,
hPa
HPBL,
m
19 january, wed
wed1900:00−8ssw2298100 0.0 101110
03:00−11ssw229997 0.1 101314
06:00−13wsw2210096 0.0 101420
09:00−13ssw2310095 0.0 101649
12:00−7sw379472 0.0 1016285
15:00−6sw259423 0.0 1016166
18:00−11sw119998 0.0 101710
21:00−10sw009997 0.1 101811
20 january, thu
thu2000:00−13ssw1110099 0.1 10199
03:00−13wnw119781 0.1 101919
06:00−16nw119992 0.1 102013
09:00−16wnw119980 0.1 102011
12:00−11sw229378 0.0 1020139
15:00−11wsw239551 0.0 1020135
18:00−15sse229970 0.0 10209
21:00−16sse2210077 0.0 102024
21 january, fri
fri2100:00−15sse359986 0.0 101950
03:00−14sse489787 0.0 1018100
06:00−9sse51195100 0.0 1015212
09:00−6sse81595100 0.5 1013392
12:00−3sse81697100 2.3 1011586
15:000s61298100 3.1 1010592
18:00+1ssw61299100 0.2 1010498
21:00−2w4995100 1.5 1011448
22 january, sat
sat2200:00−5wsw3895100 0.0 1013156
03:00−8ssw229897 0.0 101421
06:00−9ssw2297100 0.0 101422
09:00−10s229879 0.0 101516
12:00−4ssw25968 0.0 1016181
15:00−4sse2495100 0.0 101661
18:00−8sse3497100 0.0 101742
21:00−8sse2298100 0.0 101820
23 january, sun
sun2300:00−8sse1198100 0.0 101910
03:00−8e2298100 0.0 102017
06:00−7ne3697100 0.0 102099
09:00−7ne41094100 0.0 1020214
12:00−4ne71391100 0.0 1019422
15:00−3ne71496100 1.0 1018608
18:00−3ne71396100 2.1 1018508
21:00−3ne81496100 4.2 1017451